Villars, Switzerland 16 day weather forecast

Slopes altitude range 1115 m - 2120m

Number of lifts: 36 Pistes: 100km

In some cases the lift and piste totals shown are for the ski domain (e.g. Three Valleys) rather than individual resort (e.g. Courchevel)

Overview

The 16 day weather forecast is fully updated 4 times every day.

    • Wed 26 JUN 2019
    • Wed 26
    • 23C 33C
    • Thu 27 JUN 2019
    • Thu 27
    • 25C 33C
    • Fri 28 JUN 2019
    • Fri 28
    • 20C 31C
    • Sat 29 JUN 2019
    • Sat 29
    • 18C 30C
    • Sun 30 JUN 2019
    • Sun 30
    • 21C 30C
    • Mon 01 JUL 2019
    • Mon 01
    • 19C 28C
    • Tue 02 JUL 2019
    • Tue 02
    • 17C 22C
    • Wed 03 JUL 2019
    • Wed 03
    • 13C 27C
    • Thu 04 JUL 2019
    • Thu 04
    • 18C 26C
    • Fri 05 JUL 2019
    • Fri 05
    • 19C 28C
    • Sat 06 JUL 2019
    • Sat 06
    • 15C 22C
    • Sun 07 JUL 2019
    • Sun 07
    • 12C 22C
    • Mon 08 JUL 2019
    • Mon 08
    • 17C 26C
    • Tue 09 JUL 2019
    • Tue 09
    • 18C 27C
    • Wed 10 JUL 2019
    • Wed 10
    • 19C 27C
    • Thu 11 JUL 2019
    • Thu 11
    • 19C 27C

Date:

Time Type 0°C level Temp Chill Snow Cloud Speed Gust Dir Press
3:00 4624m 19°C 19_2 0cm 99% 2mph 2mph 1023mB
6:00 4621m 19°C 19_3 0cm 62% 3mph 4mph 1023mB
9:00 4618m 23°C 23_4 0cm 0% 4mph 7mph 1023mB
12:00 4652m 33°C 33_3 0cm 0% 3mph 5mph 1023mB
15:00 4661m 34°C 34_5 0cm 0% 5mph 5mph 1022mB
18:00 4667m 34°C 34_2 0cm 0% 2mph 2mph 1022mB
21:00 4632m 22°C 22_3 0cm 0% 3mph 4mph 1024mB
0:00 4648m 20°C 20_3 0cm 0% 3mph 3mph 1024mB
3:00 4634m 19°C 19_2 0cm 0% 2mph 2mph 1023mB
6:00 4573m 19°C 19_2 0cm 0% 2mph 3mph 1023mB
9:00 4563m 25°C 25_2 0cm 0% 2mph 5mph 1023mB
12:00 4624m 33°C 33_5 0cm 0% 5mph 6mph 1022mB
15:00 4652m 33°C 33_7 0cm 0% 7mph 8mph 1021mB
18:00 4627m 34°C 34_5 0cm 0% 5mph 10mph 1021mB
21:00 4615m 20°C 20_4 0cm 0% 4mph 6mph 1023mB
0:00 4590m 18°C 18_4 0cm 0% 4mph 5mph 1022mB
3:00 4574m 17°C 17_4 0cm 1% 4mph 5mph 1022mB
6:00 4562m 16°C 16_4 0cm 1% 4mph 4mph 1021mB
9:00 4584m 20°C 20_2 0cm 0% 2mph 3mph 1020mB
12:00 4705m 31°C 31_5 0cm 0% 5mph 5mph 1019mB
15:00 4788m 30°C 30_7 0cm 0% 7mph 7mph 1018mB
18:00 4840m 30°C 30_4 0cm 0% 4mph 8mph 1018mB
21:00 4878m 17°C 17_4 0cm 0% 4mph 6mph 1019mB
0:00 4915m 14°C 14_5 0cm 0% 5mph 6mph 1019mB
3:00 4859m 13°C 13_4 0cm 0% 4mph 5mph 1018mB
6:00 4880m 13°C 13_4 0cm 0% 4mph 4mph 1018mB
9:00 4899m 18°C 18_1 0cm 0% 1mph 2mph 1017mB
12:00 4903m 30°C 30_3 0cm 0% 3mph 4mph 1016mB
15:00 4902m 30°C 30_5 0cm 0% 5mph 5mph 1016mB
18:00 4862m 30°C 30_2 0cm 0% 2mph 3mph 1016mB
21:00 4875m 18°C 18_3 0cm 0% 3mph 3mph 1018mB
0:00 4843m 18°C 18_5 0cm 0% 5mph 7mph 1018mB
3:00 4749m 18°C 18_5 0cm 0% 5mph 7mph 1018mB
6:00 4607m 17°C 17_5 0cm 0% 5mph 15mph 1019mB
9:00 4577m 21°C 21_5 0cm 0% 5mph 8mph 1019mB
12:00 4553m 30°C 30_7 0cm 0% 7mph 7mph 1018mB
15:00 4535m 30°C 30_6 0cm 0% 6mph 5mph 1018mB
18:00 4504m 30°C 30_3 0cm 0% 3mph 3mph 1018mB
21:00 4502m 20°C 20_1 0cm 33% 1mph 2mph 1019mB
0:00 4481m 19°C 19_4 0cm 39% 4mph 4mph 1018mB
3:00 4463m 18°C 18_3 0cm 24% 3mph 4mph 1018mB
6:00 4416m 18°C 18_6 0cm 27% 6mph 19mph 1019mB
9:00 4343m 19°C 19_5 0cm 87% 5mph 10mph 1019mB
12:00 4452m 28°C 28_6 0cm 74% 6mph 9mph 1018mB
15:00 4333m 29°C 29_7 0cm 78% 7mph 14mph 1017mB
18:00 4345m 29°C 29_3 0cm 89% 3mph 8mph 1018mB
21:00 4237m 17°C 17_3 0cm 100% 3mph 4mph 1020mB
0:00 4202m 17°C 17_3 0cm 100% 3mph 5mph 1019mB
3:00 4212m 15°C 15_2 0cm 100% 2mph 4mph 1019mB
6:00 4196m 15°C 15_2 0cm 100% 2mph 3mph 1019mB
9:00 4212m 17°C 17_2 0cm 77% 2mph 2mph 1019mB
12:00 4185m 22°C 22_5 0cm 88% 5mph 7mph 1019mB
15:00 4147m 21°C 21_7 0cm 98% 7mph 10mph 1018mB
18:00 4119m 21°C 21_5 0cm 99% 5mph 8mph 1018mB
21:00 3958m 14°C 14_3 0cm 100% 3mph 5mph 1019mB
0:00 4154m 13°C 13_4 0cm 93% 4mph 7mph 1018mB
3:00 4004m 12°C 12_4 0cm 74% 4mph 5mph 1018mB
6:00 3977m 11°C 11_5 0cm 57% 5mph 8mph 1019mB
9:00 3979m 13°C 13_3 0cm 8% 3mph 4mph 1018mB
12:00 4036m 27°C 27_1 0cm 22% 1mph 3mph 1017mB
15:00 4068m 25°C 25_6 0cm 6% 6mph 8mph 1016mB
18:00 4080m 25°C 25_6 0cm 44% 6mph 15mph 1016mB
21:00 4023m 18°C 18_6 0cm 100% 6mph 10mph 1018mB
0:00 3957m 16°C 16_2 0cm 84% 2mph 3mph 1017mB
3:00 3934m 15°C 15_1 0cm 85% 1mph 2mph 1017mB
6:00 4005m 15°C 15_1 0cm 60% 1mph 2mph 1017mB
9:00 3990m 18°C 18_3 0cm 65% 3mph 5mph 1016mB
12:00 4047m 26°C 26_5 0cm 82% 5mph 8mph 1016mB
15:00 4080m 27°C 27_6 0cm 89% 6mph 10mph 1015mB
18:00 4089m 28°C 28_5 0cm 51% 5mph 7mph 1015mB
21:00 4035m 20°C 20_6 0cm 30% 6mph 9mph 1016mB
0:00 4055m 18°C 18_2 0cm 65% 2mph 2mph 1016mB
3:00 4040m 18°C 18_7 0cm 94% 7mph 18mph 1016mB
6:00 4033m 17°C 17_8 0cm 95% 8mph 21mph 1017mB
9:00 4087m 19°C 19_10 0cm 55% 10mph 18mph 1017mB
12:00 4015m 28°C 28_13 0cm 28% 13mph 19mph 1017mB
15:00 4026m 29°C 29_11 0cm 46% 11mph 18mph 1016mB
18:00 4024m 29°C 29_7 0cm 61% 7mph 13mph 1018mB
21:00 3960m 17°C 17_6 0cm 68% 6mph 7mph 1021mB
0:00 3858m 16°C 16_4 0cm 52% 4mph 4mph 1022mB
Afternoon 0mm 0 3563m 22°C 22_3 0cm 11% 3mph 5mph 1023mB
Morning 0mm 0 4196m 12°C 12_12 0cm 0% 12mph 26mph 1024mB
Afternoon 0mm 0 4594m 22°C 22_6 0cm 0% 6mph 7mph 1020mB
Morning 0mm 0 4439m 14°C 14_2 0cm 7% 2mph 2mph 1019mB
Afternoon 0mm 0 4399m 26°C 26_2 0cm 54% 2mph 2mph 1016mB
Morning 0.520833mm 1.5625 4351m 18°C 18_2 0cm 31% 2mph 3mph 1017mB
Afternoon 0.520833mm 1.5 4251m 27°C 27_3 0cm 38% 3mph 5mph 1016mB
Morning 0.625mm 1.875 3961m 18°C 18_3 0cm 82% 3mph 4mph 1018mB
Afternoon 0.416667mm 1.1875 4121m 27°C 27_3 0cm 25% 3mph 3mph 1016mB
Morning 0.104167mm 0.3125 4114m 18°C 18_2 0cm 50% 2mph 2mph 1015mB
Afternoon 0.229167mm 0.6875 4115m 27°C 27_2 0cm 28% 2mph 3mph 1011mB
Morning 0.208333mm 0.25 3905m 15°C 15_3 0cm 96% 3mph 4mph 1011mB

16 day outlook at a glance

Forecast issued: 6/26/2019 7:47:49 AM

Chat

Your comments and questions. In a resort? Let us know what it's like!


Characters left 250

For terms and conditions see Readers Comments on the Cookie and privacy policy page.